User: anonymous   Login
Location: *
(51.8167°N, 12.5000°E)
Time: 00:05:19
(UTC+00:00)
Language:

Cosmos 1461 - Orbit

View from above orbital plane
View from above orbital plane
View from above satellite
View from above satellite

Ground track
Ground track

The orbit data is extracted from the following two-line orbital elements,

1 14064U 83044A   19317.89337458  .00000306  00000-0  41272-4 0  9991
2 14064  65.0011  80.7830 0086177  49.8648 310.9976 14.94526255854784
Epoch (UTC): 13 November 2019 21:26:27
Eccentricity: 0.0086177
inclination: 65.0011°
perigee height: 524 km
apogee height: 644 km
right ascension of ascending node: 80.7830°
argument of perigee: 49.8648°
revolutions per day: 14.94526255
mean anomaly at epoch: 310.9976°
orbit number at epoch: 85478

The dashed part of the orbit path shows where the satellite is in the earth's shadow,  

DLR